HAWK-10B (60545 NORAD) Tracking and Keplerian Element Data

This shows tracking and keplerian element data for the satellite.

Feedback or suggestion? Click here.




ElementValue
Catalog60545
NameHAWK-10B
Epoch Orbit847
Epoch Day286.68690691
Epoch Year2024
RAAN1.2383
Inclination97.7427
Eccentricity0.0005164
Argument of Perigee349.0282
Mean Anonmoly11.0824
Mean Motion14.92752926
Decay Rate6.695E-05
L11 60545U 24149CF 24286.68690691 .00006695 00000+0 65314-3 0 9994
L22 60545 97.7427 1.2383 0005164 349.0282 11.0824 14.92752926 8471



Live tracking and technical data element details for HAWK-10B (NORAD 60545). HAWK-10B can be tracked NOW for your location showing map with azimuth and elevation plus other details from your city location.







IsCatalogInMostPopularTable: catalog: 60545, numindb: 4
Update: records affected: 1



GetName: 60545 HAWK-10B

Hit Count: updated at: Fri, 06 Dec 2024 10:33:09 GMT